Regional Weather Roundup
Issued by NWS Newport/Morehead, NC

Current Version | Previous Version | Graphics & Text | Print | Product List | Glossary Off
Versions: 1 2 3 4 5 6 7 8 9 10 11 12 13 14 15 16 17 18 19 20 21 22 23 24 25 26 27 28 29 30 31 32 33 34 35 36 37 38 39 40 41 42 43 44 45 46 47 48 49 50

634
ASUS42 KMHX 081225
RWRMHX
WEATHER ROUNDUP FOR EASTERN NORTH CAROLINA
NATIONAL WEATHER SERVICE NEWPORT/MOREHEAD CITY NC
700 AM EST MON FEB 08 2016

NOTE: "FAIR" INDICATES FEW OR NO CLOUDS BELOW 12,000 FEET
WITH NO SIGNIFICANT WEATHER AND/OR OBSTRUCTIONS TO VISIBILITY

NCZ015>017-031-032-045>047-102-103-081300-
NORTH COAST

CITY           SKY/WX    TMP DP  RH WIND       PRES   REMARKS
EDENTON        CLEAR     37  26  65 NW8       29.81R
ELIZABETH CITY CLEAR     34  26  72 W12       29.76R
KITTY HAWK     MOSUNNY   39  32  75 NW9       29.71S
MANTEO         PTCLDY    39  32  76 NW9G17    29.73S

$$

NCZ045>047-081-094-103-104-081300-
CENTRAL COAST

CITY           SKY/WX    TMP DP  RH WIND       PRES   REMARKS
FRISCO         PTCLDY    41  30  65 NW14G28   29.74R
SWANQUARTER      N/A     36 N/A N/A NW10      29.77R

$$

NCZ095-097-098-100-101-081300-
SOUTHERN COAST

CITY           SKY/WX    TMP DP  RH WIND       PRES   REMARKS
BEAUFORT       CLEAR     36  27  69 NW15      29.83R
CEDAR ISLAND     N/A     39 N/A N/A W12G25    29.85R
JACKSONVILLE   CLEAR     34  25  69 W9        29.84S
PINEY ISLAND   NOT AVBL
WILMINGTON     CLEAR     33  28  81 SW3       29.87R


$$

NCZ011>013-027>030-043-044-078>080-089-090>093-098-081300-
COASTAL PLAIN

CITY           SKY/WX    TMP DP  RH WIND       PRES   REMARKS
AHOSKIE        CLEAR     31  23  72 CALM      29.83R
CLINTON        CLEAR     31  29  93 CALM      29.86S
ELIZABETHTOWN  CLEAR     31  28  91 CALM      29.87S
GOLDSBORO      CLEAR     32  28  86 W3        29.83S
GREENVILLE     CLEAR     34  27  75 N3        29.85F
HAVELOCK       CLEAR     35  25  66 W10       29.84R
KENANSVILLE      N/A     32  26  79 CALM      29.86S
KINSTON        CLEAR     34  27  75 W3        29.85R
NEW BERN       CLEAR     35  24  64 W9        29.84R
RICHLANDS      CLEAR     32  21  64 CALM      29.85S
ROCKY MOUNT    CLEAR     30  24  78 W3        29.84R
WASHINGTON     CLEAR     34  24  68 CALM      29.83R
WHITEVILLE     CLEAR     32  29  88 CALM      29.87S

$$

AMZ130-135-150-152-154-156-158-170-250-252-270-ANZ085-086-088-633-658-670-081300-
MARINE OBSERVATIONS

STATION/POSITION TIME  TEMP    WIND        PRES    WAVE   SWELL
                       AIR SEA DIR/SP/G            HT/PER HT/PER
                 (UTC) (F)     (DEG/KT/KT) (MB)    (FT/S) (FT/S)
CHESAPEAKE LIGHT 1200   41     340/ 25/ 27 1006.7
64 E VA BEACH    1150   47 53  360/ 27/ 35 1002.3   19/11  16/11
DUCK             1200   41 51  330/ 17/ 22 1005.6
2 E DUCK         1211      44                N/A    11/12   8/12
OREGON INLET     1200   41 45  310/ 15/ 22 1006.0
13E OREGON INLT  1200      47                N/A    18/15  13/15
HATTERAS CG      1200   41 46  300/ 22/ 27 1006.5
DIAMOND BUOY     1150   45 70  320/ 23/ 29 1005.7   13/16  10/16
CAPE LOOKOUT     NOT AVBL
BEAUFORT LAB     1200   37 46  310/  7/ 14 1009.0
30 SE NEW RVR IN 1208   47 60              1008.8
30 SE NEW RVR IN 1155      60                N/A     9/13   7/13
27 SE WRIGHTSVLE 1208   46 60  360/ 16/ 23 1009.1
5 SE WRIGHTSVLE  1108   42 52  310/ 14/ 19 1011.0
225 S CAPE HAT   1150   59 69  300/ 27/ 35   N/A    27/12  16/14
41 SE CHARLESTON 1150   54 66  260/ 10/ 16 1012.5    5/11   3/11

$$




USA.gov is the U.S. government's official web portal to all federal, state and local government web resources and services.